| time (UTC) | temp F | wind direction | speed knots | gust knots | rain 1hr in | rain 24hr in | rain mn in | humidity % | barometer mb |
| 20260503180847 | 90 | 0.0 | 0.0 | 0.00 | 0.00 | 0.00 | 26 | 996.2 | |
| 20260503180347 | 91 | 0.0 | 0.0 | 0.00 | 0.00 | 0.00 | 26 | 995.9 | |
| 20260503175847 | 91 | 0.0 | 0.0 | 0.00 | 0.00 | 0.00 | 26 | 995.9 | |
| 20260503175347 | 92 | 0.0 | 0.0 | 0.00 | 0.00 | 0.00 | 26 | 995.8 | |
| 20260503174847 | 92 | 0.0 | 0.0 | 0.00 | 0.00 | 0.00 | 26 | 995.8 | |
| 20260503174347 | 93 | 0.0 | 0.0 | 0.00 | 0.00 | 0.00 | 26 | 995.8 | |
| 20260503173847 | 93 | 0.0 | 0.0 | 0.00 | 0.00 | 0.00 | 26 | 995.8 | |
| 20260503173347 | 94 | 0.0 | 0.0 | 0.00 | 0.00 | 0.00 | 26 | 995.8 | |
| 20260503172846 | 94 | 0.0 | 0.0 | 0.00 | 0.00 | 0.00 | 26 | 995.7 | |
| 20260503172347 | 94 | 0.0 | 0.0 | 0.00 | 0.00 | 0.00 | 26 | 995.6 | |
| 20260503171847 | 94 | 0.0 | 0.0 | 0.00 | 0.00 | 0.00 | 26 | 995.7 | |
| 20260503171349 | 94 | 0.0 | 0.0 | 0.00 | 0.00 | 0.00 | 26 | 995.9 | |
| 20260503170847 | 94 | 0.0 | 0.0 | 0.00 | 0.00 | 0.00 | 27 | 995.9 | |
| 20260503170347 | 93 | 0.0 | 0.0 | 0.00 | 0.00 | 0.00 | 27 | 995.8 | |
| 20260503150749 | 115 | 0.0 | 0.0 | 0.00 | 0.00 | 0.00 | 30 | 1010.8 | |
| 20260503150249 | 114 | 0.0 | 0.0 | 0.00 | 0.00 | 0.00 | 30 | 1010.9 | |
| 20260503140248 | 99 | 0.0 | 0.0 | 0.00 | 0.00 | 0.00 | 34 | 1011.8 | |
| 20260503130749 | 86 | 0.0 | 0.0 | 0.00 | 0.00 | 0.00 | 32 | 1012.7 | |
| 20260503130249 | 89 | 0.0 | 0.0 | 0.00 | 0.00 | 0.00 | 31 | 1012.5 | |
| 20260503110658 | 98 | 0.0 | 0.0 | 0.00 | 0.00 | 0.00 | 32 | 1000.9 |